User: anonymous   Login
Location: Caltech
(34.1382°N, 118.1253°W)
Time: 17:43:14
(UTC-08:00)
Language:

Cosmos 1484 Rocket - Orbit

View from above orbital plane
View from above orbital plane
View from above satellite
View from above satellite

Ground track
Ground track

The orbit data is extracted from the following two-line orbital elements,

1 14208U 83075B   17020.95352205 +.00000176 +00000-0 +14448-4 0  9998
2 14208 097.3452 037.5458 0037956 279.5899 080.1044 15.10239199824986
Epoch (UTC): 20 January 2017 22:53:04
Eccentricity: 0.0037956
inclination: 97.3452°
perigee height: 509 km
apogee height: 562 km
right ascension of ascending node: 37.5458°
argument of perigee: 279.5899°
revolutions per day: 15.10239199
mean anomaly at epoch: 80.1044°
orbit number at epoch: 82498

The dashed part of the orbit path shows where the satellite is in the earth's shadow,  

DLR